Total_Precipitation_Accumulation
0.14 0.13 0.13 0.17 0.20 0.25 0.30 0.37 0.53 0.68 0.83 0.95 1.10 1.35 1.51 1.60 1.58 1.58 1.66 1.56 1.36 1.41 1.48 1.40 1.59 1.61 1.49 1.34 1.14 1.08 1.00 0.75 0.51 0.63 0.62 0.33 0.16 0.11 0.09 0.06 0.05 0.05 0.05
0.07 0.06 0.07 0.09 0.12 0.15 0.22 0.29 0.44 0.66 0.89 1.10 1.30 1.49 1.80 1.94 1.93 1.99 1.94 1.89 1.77 1.76 1.66 1.68 1.85 1.87 1.91 1.92 1.63 1.56 1.49 1.14 0.77 0.97 1.17 0.77 0.48 0.24 0.13 0.11 0.09 0.09 0.10
0.07 0.06 0.05 0.06 0.07 0.09 0.14 0.21 0.34 0.55 0.85 1.16 1.41 1.59 1.82 2.07 2.16 2.06 2.01 2.05 2.12 2.15 2.02 1.95 2.01 2.00 2.02 2.14 2.10 1.91 1.82 1.62 1.24 1.07 1.20 1.04 0.85 0.62 0.24 0.16 0.17 0.18 0.18
0.10 0.08 0.06 0.06 0.07 0.10 0.13 0.17 0.31 0.47 0.70 0.97 1.28 1.52 1.77 2.06 2.13 2.09 2.06 2.10 2.21 2.27 2.22 2.17 2.19 2.14 2.05 2.08 2.12 2.04 2.07 2.09 1.76 1.45 1.17 0.96 0.90 0.85 0.55 0.30 0.24 0.28 0.30
0.15 0.12 0.10 0.10 0.12 0.14 0.18 0.24 0.38 0.51 0.72 0.96 1.27 1.56 1.75 1.89 2.05 2.06 1.98 1.91 1.93 1.95 1.94 2.05 2.17 2.13 2.09 2.06 2.18 2.22 2.29 2.16 1.98 1.76 1.61 1.43 1.20 0.88 0.81 0.68 0.46 0.37 0.35
0.14 0.17 0.21 0.22 0.22 0.24 0.30 0.37 0.49 0.69 0.85 0.95 1.09 1.22 1.43 1.69 1.80 1.89 1.91 1.90 1.85 1.73 1.68 1.77 1.86 1.93 1.94 1.94 1.94 2.03 2.11 2.13 2.14 1.94 1.71 1.60 1.46 1.32 1.19 0.89 0.68 0.58 0.42
0.25 0.33 0.43 0.40 0.37 0.40 0.49 0.56 0.62 0.71 0.77 0.77 0.84 0.94 1.10 1.30 1.43 1.52 1.69 1.71 1.72 1.64 1.59 1.57 1.65 1.73 1.74 1.81 1.93 1.88 1.85 1.93 2.00 1.94 1.80 1.72 1.54 1.37 1.36 1.16 0.90 0.77 0.53
0.39 0.54 0.65 0.70 0.64 0.62 0.64 0.61 0.61 0.59 0.60 0.65 0.71 0.77 0.82 0.94 1.04 1.11 1.26 1.36 1.34 1.29 1.24 1.27 1.38 1.55 1.64 1.72 1.79 1.79 1.74 1.72 1.71 1.74 1.75 1.73 1.64 1.41 1.28 1.24 1.24 1.06 0.84
0.57 0.73 0.86 0.93 0.87 0.78 0.72 0.68 0.67 0.64 0.58 0.60 0.67 0.72 0.75 0.76 0.77 0.81 0.81 0.87 0.94 0.96 0.97 1.00 1.13 1.29 1.42 1.46 1.51 1.59 1.61 1.59 1.54 1.58 1.59 1.54 1.57 1.48 1.29 1.19 1.16 1.19 1.03
0.80 0.91 0.98 0.97 0.96 1.00 0.93 0.77 0.71 0.71 0.65 0.73 0.74 0.70 0.68 0.65 0.62 0.63 0.68 0.67 0.76 0.86 0.90 0.90 0.95 1.04 1.14 1.24 1.32 1.39 1.46 1.41 1.36 1.37 1.39 1.43 1.46 1.50 1.45 1.37 1.28 1.23 1.13
1.00 1.02 1.08 1.01 0.89 0.89 0.87 0.84 0.79 0.73 0.74 0.79 0.79 0.69 0.66 0.65 0.63 0.58 0.59 0.64 0.73 0.83 0.86 0.90 0.92 0.92 1.01 1.05 1.12 1.22 1.31 1.28 1.25 1.20 1.20 1.30 1.33 1.46 1.51 1.44 1.33 1.26 1.17
0.94 0.98 1.04 0.97 0.81 0.77 0.68 0.71 0.79 0.79 0.85 0.85 0.78 0.69 0.69 0.71 0.75 0.72 0.64 0.62 0.68 0.70 0.78 0.86 0.85 0.83 0.88 0.93 1.01 1.11 1.15 1.16 1.09 1.02 1.00 1.08 1.14 1.26 1.38 1.45 1.35 1.28 1.19
0.73 0.72 0.73 0.80 0.76 0.72 0.64 0.70 0.76 0.81 0.85 0.86 0.84 0.75 0.64 0.67 0.70 0.69 0.61 0.58 0.62 0.65 0.75 0.82 0.90 0.81 0.73 0.80 0.87 0.93 0.95 0.89 0.82 0.81 0.82 0.87 0.92 1.00 1.12 1.24 1.32 1.28 1.20
0.52 0.50 0.46 0.52 0.55 0.57 0.62 0.66 0.77 0.89 0.93 0.91 0.84 0.81 0.74 0.75 0.69 0.57 0.52 0.53 0.55 0.52 0.56 0.65 0.73 0.75 0.69 0.68 0.70 0.73 0.82 0.78 0.68 0.59 0.57 0.62 0.66 0.70 0.83 0.97 1.11 1.22 1.26
0.37 0.35 0.32 0.32 0.34 0.37 0.45 0.52 0.65 0.81 0.93 0.97 0.92 0.85 0.79 0.68 0.59 0.54 0.45 0.43 0.40 0.39 0.44 0.57 0.71 0.76 0.72 0.72 0.74 0.69 0.71 0.73 0.70 0.61 0.53 0.48 0.47 0.52 0.59 0.71 0.92 1.05 1.17
0.27 0.24 0.24 0.21 0.23 0.29 0.36 0.36 0.48 0.63 0.74 0.79 0.80 0.81 0.77 0.61 0.53 0.45 0.38 0.34 0.33 0.33 0.36 0.43 0.55 0.68 0.67 0.79 0.81 0.76 0.69 0.69 0.66 0.63 0.64 0.62 0.55 0.44 0.37 0.39 0.51 0.69 0.88
0.23 0.21 0.20 0.21 0.23 0.30 0.31 0.32 0.41 0.52 0.57 0.61 0.64 0.66 0.61 0.48 0.43 0.34 0.29 0.30 0.30 0.32 0.35 0.40 0.50 0.63 0.77 0.74 0.61 0.69 0.67 0.64 0.62 0.58 0.60 0.65 0.64 0.66 0.54 0.44 0.39 0.41 0.52
0.16 0.21 0.18 0.17 0.19 0.24 0.29 0.37 0.40 0.41 0.41 0.45 0.49 0.47 0.47 0.42 0.35 0.27 0.27 0.28 0.29 0.33 0.35 0.38 0.43 0.48 0.62 0.61 0.51 0.67 0.67 0.67 0.66 0.62 0.62 0.68 0.71 0.69 0.77 0.73 0.64 0.56 0.55
0.07 0.10 0.09 0.09 0.10 0.10 0.11 0.14 0.17 0.19 0.23 0.30 0.36 0.40 0.40 0.36 0.31 0.26 0.32 0.38 0.36 0.35 0.35 0.35 0.36 0.38 0.44 0.49 0.44 0.53 0.65 0.73 0.73 0.64 0.61 0.66 0.66 0.82 0.87 0.76 0.71 0.66 0.61
0.02 0.03 0.03 0.03 0.03 0.02 0.02 0.03 0.05 0.09 0.13 0.19 0.24 0.28 0.31 0.34 0.38 0.46 0.54 0.55 0.50 0.42 0.38 0.36 0.35 0.37 0.38 0.48 0.34 0.43 0.57 0.69 0.77 0.70 0.62 0.80 0.76 0.76 0.69 0.56 0.66 0.71 0.66
0.00 0.00 0.01 0.01 0.00 0.00 0.00 0.00 0.01 0.02 0.02 0.04 0.10 0.18 0.29 0.35 0.44 0.56 0.59 0.57 0.52 0.42 0.37 0.35 0.33 0.34 0.42 0.56 0.48 0.50 0.58 0.66 0.75 0.78 0.76 0.72 0.78 0.60 0.55 0.54 0.57 0.70 0.69
0.00 0.00 0.00 0.00 0.00 0.00 0.00 0.00 0.00 0.00 0.01 0.03 0.07 0.13 0.20 0.29 0.42 0.51 0.50 0.50 0.48 0.45 0.41 0.40 0.38 0.39 0.49 0.57 0.57 0.55 0.58 0.61 0.69 0.72 0.64 0.59 0.61 0.45 0.41 0.39 0.46 0.55 0.56
0.00 0.00 0.00 0.00 0.00 0.00 0.00 0.00 0.00 0.00 0.00 0.01 0.02 0.06 0.11 0.22 0.36 0.39 0.39 0.42 0.45 0.44 0.43 0.41 0.38 0.37 0.42 0.51 0.62 0.53 0.45 0.43 0.49 0.51 0.50 0.44 0.39 0.35 0.30 0.30 0.37 0.39 0.47
0.00 0.00 0.00 0.00 0.00 0.00 0.00 0.00 0.00 0.00 0.00 0.00 0.00 0.01 0.02 0.05 0.10 0.15 0.20 0.26 0.31 0.33 0.32 0.35 0.39 0.41 0.41 0.40 0.45 0.46 0.43 0.37 0.35 0.32 0.25 0.25 0.26 0.29 0.31 0.30 0.31 0.34 0.49
0.00 0.00 0.00 0.00 0.00 0.00 0.00 0.00 0.00 0.00 0.00 0.00 0.00 0.01 0.02 0.03 0.04 0.06 0.09 0.12 0.15 0.19 0.25 0.30 0.34 0.34 0.38 0.37 0.39 0.41 0.41 0.45 0.48 0.47 0.36 0.28 0.26 0.26 0.29 0.31 0.35 0.45 0.55
0.00 0.00 0.00 0.00 0.00 0.00 0.00 0.00 0.00 0.00 0.00 0.00 0.00 0.00 0.01 0.01 0.01 0.02 0.03 0.04 0.06 0.09 0.12 0.15 0.18 0.18 0.24 0.31 0.32 0.35 0.37 0.39 0.44 0.48 0.47 0.45 0.45 0.44 0.41 0.37 0.35 0.38 0.44